Weather History for Clayton Lake, ME

Change the Weather History Date:

Thursday, January 3, 2013

  Actual Average Record
Temperature  
Mean Temperature -2 °F -  
Max Temperature 6 °F 20 °F 43 °F (2000)
Min Temperature -9 °F 0 °F -17 °F (2006)
Degree Days  
Heating Degree Days 67    
Moisture  
Dew Point -10 °F    
Average Humidity 76    
Maximum Humidity 82    
Minimum Humidity 67    
Precipitation  
Precipitation 0.42 in - - ()
Sea Level Pressure  
Sea Level Pressure 30.05 in    
Wind  
Wind Speed 4 mph (North)    
Max Wind Speed 5 mph    
Max Gust Speed 14 mph    
Averages and records for this station are not official NWS values.
T = Trace of Precipitation, MM = Missing Value Source: NWS Daily Summary

Daily Weather History Graph

Daily Weather History Graph

Search for Another Location

Airport:

Trip Planner

Search our weather history database for the weather conditions in past years. The results will help you decide how hot, cold, wet, or windy it might be!

Date:

Astronomy

Jan. 03, 2013 Rise Set
Actual Time 7:22 AM EST 4:03 PM EST
Civil Twilight 6:47 AM EST 4:38 PM EST
Nautical Twilight 6:09 AM EST 5:16 PM EST
Astronomical Twilight 5:32 AM EST 5:53 PM EST
Moon 11:01 PM EST (1/3) 10:08 AM EST (1/3)
Length of Visible Light 9h 50m
Length of Day
8h 41m
Waning Gibbous, 65% of the Moon is Illuminated
Jan 3
Waning Gibbous
Jan 4
Last Quarter
Jan 11
New
Jan 18
First Quarter
Jan 26
Full

Hourly Weather History & Observations

Time (EST) Temp. Windchill Dew Point Humidity Pressure Visibility Wind Dir Wind Speed Gust Speed Precip Events Conditions
12:25 AM -7.6 °F -18.8 °F -12.6 °F 79% 30.08 in - Variable 4.6 mph - N/A   Unknown
1:25 AM -8.7 °F - -13.5 °F 79% 30.09 in - Variable 2.3 mph - N/A   Unknown
2:25 AM -9.0 °F -18.2 °F -13.9 °F 79% 30.11 in - Variable 3.5 mph - 0.01 in   Unknown
3:25 AM -9.2 °F -20.7 °F -14.3 °F 79% 30.10 in - Variable 4.6 mph - N/A   Unknown
4:25 AM -9.2 °F -18.4 °F -14.4 °F 78% 30.11 in - Variable 3.5 mph - 0.02 in   Unknown
5:25 AM -9.4 °F -20.9 °F -14.6 °F 78% 30.11 in - Variable 4.6 mph - 0.03 in   Unknown
6:25 AM -9.8 °F -19.0 °F -14.8 °F 78% 30.09 in - Variable 3.5 mph - N/A   Unknown
7:25 AM -9.4 °F -20.9 °F -14.8 °F 77% 30.11 in - Variable 4.6 mph - 0.04 in   Unknown
8:25 AM -8.7 °F -20.0 °F -14.4 °F 76% 30.12 in - Variable 4.6 mph - N/A   Unknown
9:25 AM -5.8 °F - -12.3 °F 74% 30.13 in - Variable 2.3 mph - 0.05 in   Unknown
10:25 AM -2.0 °F -10.1 °F -9.8 °F 70% 30.11 in - Variable 3.5 mph 11.5 mph 0.01 in   Unknown
11:26 AM -0.6 °F -10.6 °F -8.7 °F 69% 30.08 in - Variable 4.6 mph 13.8 mph 0.04 in   Unknown
12:27 PM 1.4 °F -8.3 °F -7.1 °F 68% 30.06 in - Variable 4.6 mph 11.5 mph 0.03 in   Unknown
1:25 PM 4.1 °F -3.2 °F -4.4 °F 68% 30.03 in - Variable 3.5 mph - 0.01 in   Unknown
2:25 PM 5.0 °F -4.1 °F -3.8 °F 67% 30.02 in - Variable 4.6 mph - 0.04 in   Unknown
3:25 PM 4.6 °F -2.5 °F -3.6 °F 69% 30.01 in - Variable 3.5 mph - 0.04 in   Unknown
4:25 PM 0.3 °F - -5.3 °F 77% 29.99 in - Variable 2.3 mph - 0.04 in   Unknown
5:25 PM -0.8 °F -10.8 °F -6.0 °F 79% 29.99 in - Variable 4.6 mph - N/A   Unknown
6:25 PM -1.1 °F -9.1 °F -6.5 °F 78% 29.98 in - Variable 3.5 mph - 0.02 in   Unknown
7:26 PM -1.1 °F -11.2 °F -6.9 °F 77% 29.98 in - Variable 4.6 mph - 0.02 in   Unknown
8:25 PM -0.8 °F -8.7 °F -6.5 °F 77% 29.96 in - Variable 3.5 mph - 0.00 in   Unknown
9:25 PM -1.3 °F -9.3 °F -6.7 °F 78% 29.96 in - Variable 3.5 mph - N/A   Unknown
10:25 PM -2.2 °F - -6.9 °F 80% 29.94 in - Calm Calm - N/A   Unknown
11:25 PM -3.3 °F - -7.6 °F 82% 29.92 in - Variable 2.3 mph - 0.02 in   Unknown